Regional Weather Roundup
Issued by NWS Albany, NY

Home | Current Version | Previous Version | Graphics & Text | Print | Product List | Glossary Off
Versions: 1 2 3 4 5 6 7 8 9 10 11 12 13 14 15 16 17 18 19 20 21 22 23 24 25 26 27

000
ASUS41 KALY 210710
RWRALY

NEW YORK STATE HOURLY WEATHER ROUNDUP
NATIONAL WEATHER SERVICE ALBANY NY
200 AM EST SAT JAN 21 2017

NOTE: "FAIR" INDICATES FEW OR NO CLOUDS BELOW 12,000 FEET WITH NO
SIGNIFICANT WEATHER AND/OR NO OBSTRUCTIONS TO VISIBILITY.

NYZ032-033-038>043-046>054-057>066-NYZ062>081-082-084-210800-
EAST


CITY           SKY/WX    TMP DP  RH WIND       PRES   REMARKS
ALBANY         CLOUDY    39  34  82 S9        29.88R WCI  33
GLENS FALLS    FOG       35  31  85 CALM      29.86R VSB 3/4
POUGHKEEPSIE   CLOUDY    37  36  96 CALM      29.90R FOG
NEWBURGH       CLOUDY    39  39 100 CALM      29.91R FOG
MONTGOMERY     CLOUDY    39  38  96 S3        29.88S FOG
WHITE PLAINS   FOG       39  37  92 CALM      29.90S VSB 1/2
ISLIP          CLOUDY    42  42 100 SW3       29.92S FOG
NEW YORK CITY  CLOUDY    44  39  82 SW10      29.92S
CENTRAL PARK   CLOUDY    42  40  92 W6G16     29.94S FOG
$$

NYZ005>009-017-018-044>046-055-056-210800-
CENTRAL


CITY           SKY/WX    TMP DP  RH WIND       PRES   REMARKS
FULTON         CLOUDY    38  37  97 SE3       29.80R FOG
SYRACUSE       CLOUDY    37  37 100 E3        29.80S
ROME           CLOUDY    37  36  96 E8        29.84R WCI  31
ELMIRA         CLOUDY    39  37  92 CALM      29.84R FOG
BINGHAMTON     FOG       36  36 100 S6        29.82R VSB 1/4 WCI  31
MONTICELLO     CLOUDY    34  34 100 CALM      29.88R VSB 1/4
$$

NYZ026>034-041>043-087-210800-
NORTH


CITY           SKY/WX    TMP DP  RH WIND       PRES   REMARKS
WATERTOWN      CLOUDY    42  41  96 SW5       29.78S FOG
FORT DRUM      NOT AVBL
OGDENSBURG     CLOUDY    35  33  92 CALM      29.80R
MASSENA        CLOUDY    34  31  88 NE3       29.82R
SARANAC LAKE   CLOUDY    33  32  96 W3        29.75S
PLATTSBURGH    CLOUDY    33  30  88 CALM      29.83R
$$

NYZ001>004-010>016-019>021-085-210800-
WEST


CITY           SKY/WX    TMP DP  RH WIND       PRES   REMARKS
NIAGARA FALLS  CLOUDY    43  39  86 SW9       29.80R
BUFFALO        CLOUDY    40  39  97 SW8       29.81R FOG     WCI  34
DUNKIRK        CLOUDY    44  44 100 SW7       29.82S FOG
JAMESTOWN      CLOUDY    46  45  93 SW3       29.80S
WELLSVILLE     CLOUDY    46  44  93 SW5       29.82R
ROCHESTER      DRIZZLE   46  45  96 W9        29.80R
PENN YAN       CLOUDY    43  38  82 SW7       29.81R
$$

             KEY
       WCI = WIND CHILL INDEX
       VSB = VISIBILITY
       HX  = HEAT INDEX
$$




USA.gov is the U.S. government's official web portal to all federal, state and local government web resources and services.